Location: Harwich
(41.7160°N, 69.9939°W)
Time: 09:28:31
(UTC+02:00)

A-11 Canister half - Pass Details

Date: 28 February 2024
Orbit: 1513 x 1686 km, 47.2° (Epoch: 24 April)

Event Time Altitude Azimuth Distance (km) Brightness Sun altitude
Exits shadow 08:28:56 66° 26° (NNE) 1,792 9.2 -41.9°
Drops below altitude 10° 08:37:43 10° 70° (ENE) 3,870 11.7 -40.5°
Sets 08:40:50 0° 73° (ENE) 4,835 12.5 -40.0°
